Columbus, OH

12:21 AM EDT on April 26, 2018 (GMT -0400)
Port Columbus International

Weather History for KCMH - August, 2014

Change the Weather History Date:

Sunday, August 17, 2014

  Actual Average Record
Temperature  
Mean Temperature 77 °F 74 °F  
Max Temperature 84 °F 84 °F 97 °F (1988)
Min Temperature 69 °F 64 °F 48 °F (1981)
Degree Days  
Heating Degree Days 0 0  
Month to date heating degree days 0 0  
Since 1 June heating degree days 1 19  
Since 1 July heating degree days 0 0  
Cooling Degree Days 12 9  
Month to date cooling degree days 143 164  
Year to date cooling degree days 838 772  
Since 1 June cooling degree days 683 690  
Growing Degree Days 26 (Base 50)    
Moisture  
Dew Point 64 °F    
Average Humidity 68    
Maximum Humidity 84    
Minimum Humidity 51    
Precipitation  
Precipitation T in 0.12 in 2.06 in (1972)
Month to date precipitation 1.60 1.83  
Year to date precipitation 27.21 26.20  
Snow  
Snow 0.00 in 0.00 in 0.00 in ()
Month to date snowfall 0.0 0.0  
Since 1 June snowfall 0.0 0.0  
Since 1 July snowfall 0.0 0.0  
Snow Depth 0.00 in    
Sea Level Pressure  
Sea Level Pressure 29.96 in    
Wind  
Wind Speed 3 mph (SW)    
Max Wind Speed 9 mph    
Max Gust Speed 13 mph    
Visibility 9 miles    
Events      
T = Trace of Precipitation, MM = Missing Value Source: NWS Daily Summary

Daily Weather History Graph

Daily Weather History Graph

Search for Another Location

Airport or City:

Astronomy

Aug. 17, 2014 Rise Set
Actual Time 6:45 AM EDT 8:25 PM EDT
Civil Twilight 6:16 AM EDT 8:54 PM EDT
Nautical Twilight 5:41 AM EDT 9:28 PM EDT
Astronomical Twilight 5:04 AM EDT 10:06 PM EDT
Moon 12:09 AM EDT (8/17) 2:29 PM EDT (8/17)
Length of Visible Light 14h 37m
Length of Day
13h 40m
Waning Gibbous, 48% of the Moon is Illuminated
Aug 17
Waning Gibbous
Aug 25
New
Sep 2
First Quarter
Sep 8
Full
Sep 15
Last Quarter

Hourly Weather History & Observations

Time (EDT) Temp. Heat Index Dew Point Humidity Pressure Visibility Wind Dir Wind Speed Gust Speed Precip Events Conditions
12:51 AM 72.0 °F - 64.9 °F 78% 29.96 in 9.0 mi Calm Calm - N/A   Overcast
1:51 AM 73.4 °F - 64.4 °F 73% 29.98 in 10.0 mi SSW 3.5 mph - N/A   Overcast
2:51 AM 73.0 °F - 64.9 °F 76% 29.96 in 10.0 mi SW 3.5 mph - N/A   Overcast
3:51 AM 72.0 °F - 64.9 °F 78% 29.96 in 9.0 mi Calm Calm - N/A   Overcast
4:51 AM 71.6 °F - 66.2 °F 83% 29.97 in 7.0 mi SW 3.5 mph - N/A   Overcast
5:51 AM 71.1 °F - 64.9 °F 81% 29.96 in 7.0 mi Calm Calm - N/A   Overcast
7:51 AM 69.8 °F - 64.4 °F 83% 29.99 in 5.0 mi Calm Calm - N/A   Haze
8:51 AM 73.4 °F - 66.2 °F 78% 30.00 in 7.0 mi Calm Calm - N/A   Mostly Cloudy
9:51 AM 77.0 °F - 66.0 °F 69% 29.98 in 8.0 mi West 4.6 mph - N/A   Mostly Cloudy
10:51 AM 80.1 °F 81.7 °F 64.0 °F 58% 29.98 in 10.0 mi NNW 5.8 mph - N/A   Mostly Cloudy
11:51 AM 81.0 °F 82.5 °F 64.0 °F 56% 29.97 in 10.0 mi North 4.6 mph - N/A   Mostly Cloudy
12:51 PM 80.1 °F 81.2 °F 62.1 °F 54% 29.97 in 10.0 mi North 4.6 mph - N/A   Overcast
1:51 PM 81.0 °F 82.2 °F 63.0 °F 54% 29.95 in 10.0 mi ESE 3.5 mph - N/A   Overcast
2:51 PM 82.0 °F 83.1 °F 63.0 °F 52% 29.94 in 10.0 mi SSW 4.6 mph - N/A   Overcast
3:51 PM 81.0 °F 82.5 °F 64.0 °F 56% 29.94 in 10.0 mi SSW 6.9 mph - N/A   Overcast
4:51 PM 81.0 °F 81.9 °F 62.1 °F 52% 29.94 in 10.0 mi South 8.1 mph - N/A   Overcast
5:51 PM 80.1 °F 81.2 °F 62.1 °F 54% 29.93 in 10.0 mi South 5.8 mph - N/A   Overcast
6:51 PM 78.8 °F - 62.6 °F 57% 29.94 in 10.0 mi SSW 4.6 mph - N/A   Overcast
7:51 PM 78.8 °F - 62.6 °F 57% 29.94 in 10.0 mi Calm Calm - N/A   Overcast
8:51 PM 78.1 °F - 64.0 °F 62% 29.93 in 10.0 mi Calm Calm - N/A   Overcast
9:51 PM 77.0 °F - 62.6 °F 61% 29.95 in 10.0 mi SSE 3.5 mph - N/A   Overcast
10:51 PM 75.0 °F - 64.0 °F 69% 29.92 in 10.0 mi Calm Calm - N/A   Overcast